2022-087E (53303 NORAD) Tracking and Keplerian Element Data

This shows tracking and keplerian element data for the satellite.

Feedback or suggestion? Click here.




ElementValue
Catalog53303
Name2022-087E
Epoch Orbit944
Epoch Day270.22904556
Epoch Year2022
RAAN343.7223
Inclination97.4036
Eccentricity0.0018034
Argument of Perigee80.136
Mean Anonmoly4.6815
Mean Motion15.22383164
Decay Rate5.722E-05
L11 53303U 22087E 22270.22904556 .00005722 00000+0 24975-3 0 9994
L22 53303 97.4036 343.7223 0018034 80.1360 4.6815 15.22383164 9449

Live tracking and technical data element details for 2022-087E (NORAD 53303). 2022-087E can be tracked NOW for your location showing map with azimuth and elevation plus other details from your city location.

Track the satellite on the map from your city or location and see movement details for azimuth, elevation, latitude, longitude, range, height, and movement on the map or in text.







IsCatalogInMostPopularTable: catalog: 53303, numindb: 2
Update: records affected: 1



GetName: 53303 2022-087E

Hit Count: updated at: Fri, 30 Sep 2022 03:34:47 GMT